STARLINK-1551, 46075

Orbit data source: Space-Track

STARLINK-1551, 46075 is a payload satellite owned by SpaceX/Seattle (US) in LEO that was launched on Fri, 07 Aug 2020 UTC via an FALCON 9 launch vehicle from the Air Force Eastern Test Range (AFETR). Payload-class satellites include a variety of spacecraft equipped with specific instruments for various scientific and technological missions. These include communications satellites like Starlink; space stations such as the ISS; scientific satellites like the Hubble; Earth observation satellites from companies like Planet Labs, Umbra, and HawkEye 360; GPS; miniature CubeSats for education and research; and military/defense satellites.

Loading next visibility...
Identifier
46075, 2020-055BA
Orbit
LEO
Country
Flag of USUS
Related business
Manufacturer
SpaceX/Seattle
Mission
Operational Commercial Communications
Bus & Motor
STARLINK, Unknown motor
Mass
260 kg wet, ~248 kg dry
Launch date (UTC)
2020-08-07 (6 years ago)
Launch vehicle
FALCON 9
Launch site
Air Force Eastern Test Range (AFETR)
Object type
Payload
Rocket body
Debris
Shape & HBR
Box + 1 Pan, 10.1 m
Radar Cross Section
13.562 m², Large (>1 m²)

Expand to show TLE details & history
Last TLE update: 10 hours ago

TLE from 10 hours ago
0 STARLINK-1551
1 46075U 20055BA  26036.77457130  .00000953  00000-0  82838-4 0  9995
2 46075  53.0555 239.8894 0001294  88.6924 271.4213 15.06404367304499
Epoch: 2026-02-05T18:35Z
TLE epoch observation values (Epoch: 2026-02-05T18:35:22.960Z)
Latitude
-0.00003°
Longitude
-174.87826°
Altitude
548.055 km
Speed
7.589 km/s
True Right ascension
15h 59m 33s
True Declination
0° 00' 00"
Sunlit
Object was in daylight at epoch
Visualization orbit readout
Latitude
Unknown
Longitude
Unknown
Altitude
Unknown
Speed
Unknown
Apparent Right ascension
Unknown
Apparent Declination
Unknown
Sunlit
N/A
Visualization observer readout
Local Sidereal Time
07:04:10
Azimuth
Unknown
Elevation
Unknown
Doppler factor
Unknown
Orbital elements
Apogee altitude
548.365 km
Perigee altitude
546.573 km
Semi-major axis
6,925.606 km
Eccentricity
0.00013
Inclination
53.0555°
RAAN
239.8894°
Arg. of periapsis
88.6924°
True anomaly
271.40648°
Mean anomaly
271.4213°
Eccentric anomaly
271.41389°
Mean motion
3.76579 °/min
Orbital period
95.6 mins
BSTAR
0.000082838
Loading maneuver chart data...
Computing Atmospheric mass density...
Loading historical data...
Loading historical data...
Loading historical data...
Loading historical data...
Loading historical data...
Loading historical data...
Loading historical data...

Documentation

Showing up to 5 results
|